Location: Esp�n
(42.4593°N, 0.2047°W)
Time: 23:14:09
(UTC+00:00)

STARLINK-45 - Pass Details

Date: 07 June 2020
Orbit: 433 x 435 km, 53.0° (Epoch: 05 July)

Event Time Altitude Azimuth Distance (km) Brightness Sun altitude
Exits shadow 00:40:59 - 94° (E) 2,345 6.9 -24.1°
Enters shadow 01:38:39 -66° 232° (SW) 12,123 10.4 -20.9°
Maximum altitude 02:14:44 39° 136° (SE) 661 3.9 -17.7°
